Oscoda, MI

1:35 PM EST on February 11, 2016 (GMT -0500)
Oscoda-Wurtsmith

Weather History for KOSC - January, 2014

Change the Weather History Date:

Friday, January 3, 2014

  Actual Average Record
Temperature  
Mean Temperature 0 °F -  
Max Temperature 14 °F 29 °F 50 °F (1998)
Min Temperature -14 °F 15 °F -14 °F (2014)
Degree Days  
Heating Degree Days 65    
Moisture  
Dew Point -4 °F    
Average Humidity 72    
Maximum Humidity 83    
Minimum Humidity 60    
Precipitation  
Precipitation 0.00 in - - ()
Sea Level Pressure  
Sea Level Pressure 30.24 in    
Wind  
Wind Speed 9 mph (SSW)    
Max Wind Speed 26 mph    
Max Gust Speed 40 mph    
Visibility 10 miles    
Events      
Averages and records for this station are not official NWS values.
T = Trace of Precipitation, MM = Missing Value Source: NWS Daily Summary

Daily Weather History Graph

Daily Weather History Graph

Search for Another Location

Airport or City:

Trip Planner

Search our weather history database for the weather conditions in past years. The results will help you decide how hot, cold, wet, or windy it might be!

Date:

Astronomy

Jan. 03, 2014 Rise Set
Actual Time 8:09 AM EST 5:06 PM EST
Civil Twilight 7:36 AM EST 5:39 PM EST
Nautical Twilight 7:00 AM EST 6:16 PM EST
Astronomical Twilight 6:24 AM EST 6:51 PM EST
Moon 9:28 AM EST (1/3) 8:22 PM EST (1/3)
Length of Visible Light 10h 02m
Length of Day
8h 56m
Waxing Crescent, 8% of the Moon is Illuminated
Jan 3
Waxing Crescent
Jan 7
First Quarter
Jan 15
Full
Jan 24
Last Quarter
Jan 30
New

Hourly Weather History & Observations

Time (EST) Temp. Windchill Dew Point Humidity Pressure Visibility Wind Dir Wind Speed Gust Speed Precip Events Conditions
12:14 AM -1.3 °F - -5.6 °F 82% 30.28 in 10.0 mi North - - N/A   Clear
12:33 AM -1.3 °F - -5.8 °F 81% 30.28 in 10.0 mi North - - N/A   Clear
12:54 AM -1.8 °F - -6.3 °F 81% 30.28 in 10.0 mi North - - N/A   Clear
1:14 AM -2.9 °F - -6.9 °F 83% 30.27 in 10.0 mi North - - N/A   Clear
1:33 AM -2.4 °F - -7.1 °F 80% 30.27 in 10.0 mi North - - N/A   Clear
1:54 AM -3.1 °F - -7.6 °F 81% 30.28 in 10.0 mi North - - N/A   Clear
2:13 AM -3.5 °F - -8.1 °F 80% 30.29 in 10.0 mi North - - N/A   Clear
2:33 AM -4.2 °F - -9.0 °F 80% 30.30 in 10.0 mi North - - N/A   Clear
2:54 AM -4.2 °F - -9.0 °F 80% 30.31 in 10.0 mi North - - N/A   Clear
3:13 AM -4.4 °F - -9.4 °F 79% 30.32 in 10.0 mi North - - N/A   Clear
3:33 AM -4.9 °F - -9.9 °F 79% 30.33 in 10.0 mi North - - N/A   Clear
3:54 AM -4.9 °F - -9.8 °F 80% 30.32 in 10.0 mi North - - N/A   Clear
4:13 AM -5.8 °F - -11.0 °F 78% 30.32 in 10.0 mi North - - N/A   Clear
4:33 AM -6.3 °F - -11.4 °F 79% 30.32 in 10.0 mi North - - N/A   Clear
4:54 AM -6.2 °F - -11.2 °F 79% 30.33 in 10.0 mi North - - N/A   Clear
5:13 AM -7.4 °F - -12.3 °F 79% 30.33 in 10.0 mi North - - N/A   Clear
5:33 AM -7.1 °F - -12.1 °F 79% 30.33 in 10.0 mi North - - N/A   Clear
5:54 AM -8.0 °F - -12.5 °F 81% 30.33 in 10.0 mi Calm Calm - N/A   Clear
6:13 AM -7.2 °F - -12.1 °F 79% 30.34 in 10.0 mi Calm Calm - N/A   Clear
6:33 AM -8.9 °F - -13.4 °F 81% 30.35 in 10.0 mi Calm Calm - N/A   Clear
6:54 AM -7.6 °F - -11.7 °F 82% 30.35 in 10.0 mi North - - N/A   Clear
7:13 AM -13.2 °F -28.8 °F -17.7 °F 80% 30.36 in 10.0 mi WSW 6.9 mph - N/A   Clear
7:33 AM -12.6 °F - -16.8 °F 82% 30.35 in 10.0 mi North - - N/A   Clear
7:54 AM -13.5 °F - -18.0 °F 80% 30.35 in 10.0 mi North - - N/A   Clear
8:13 AM -13.4 °F - -18.0 °F 80% 30.35 in 10.0 mi North - - N/A   Clear
8:33 AM -14.3 °F - -19.1 °F 79% 30.36 in 10.0 mi North - - N/A   Clear
8:54 AM -13.9 °F - -18.9 °F 78% 30.36 in - North - - N/A   Clear
9:13 AM -12.3 °F -24.2 °F -17.1 °F 79% 30.36 in - WSW 4.6 mph - N/A   Clear
9:34 AM -8.0 °F -22.5 °F -12.8 °F 79% 30.35 in 3.0 mi SW 6.9 mph - N/A   Haze
9:54 AM -6.0 °F -18.6 °F -11.0 °F 79% 30.36 in - WSW 5.8 mph - N/A   Scattered Clouds
10:13 AM -1.8 °F -15.2 °F -7.2 °F 78% 30.36 in - SW 6.9 mph - N/A   Clear
10:34 AM 0.1 °F -12.8 °F -6.3 °F 74% 30.36 in - SW 6.9 mph - N/A   Scattered Clouds
10:54 AM 1.6 °F -11.0 °F -4.9 °F 74% 30.35 in - WSW 6.9 mph - N/A   Mostly Cloudy
11:13 AM 5.9 °F -8.9 °F -1.5 °F 72% 30.35 in - SW 10.4 mph - N/A   Overcast
11:34 AM 7.2 °F -5.4 °F -0.9 °F 69% 30.34 in - SSW 8.1 mph - N/A   Overcast
11:54 AM 8.2 °F -6.8 °F -0.8 °F 67% 30.33 in - SSW 11.5 mph - N/A   Overcast
12:13 PM 8.8 °F -6.1 °F -0.9 °F 65% 30.32 in - SSW 11.5 mph - N/A   Mostly Cloudy
12:34 PM 9.5 °F 1.2 °F -0.8 °F 63% 30.30 in - SSW 4.6 mph - N/A   Scattered Clouds
12:54 PM 10.8 °F -2.0 °F -0.4 °F 61% 30.28 in - SSW 9.2 mph - N/A   Mostly Cloudy
1:13 PM 12.6 °F 0.2 °F 0.9 °F 60% 30.28 in - South 9.2 mph - N/A   Mostly Cloudy
1:34 PM 12.2 °F -1.0 °F 1.4 °F 62% 30.28 in - South 10.4 mph - N/A   Scattered Clouds
1:54 PM 12.6 °F -1.4 °F 2.3 °F 64% 30.27 in - SSW 11.5 mph - N/A   Clear
2:13 PM 13.1 °F 0.9 °F 2.1 °F 62% 30.26 in - South 9.2 mph - N/A   Clear
2:34 PM 12.2 °F -2.5 °F 1.0 °F 61% 30.25 in - SSW 12.7 mph - N/A   Clear
2:53 PM 12.2 °F -4.3 °F 1.8 °F 63% 30.25 in - South 16.1 mph - N/A   Mostly Cloudy
3:13 PM 12.0 °F -5.1 °F 1.8 °F 64% 30.24 in - SSW 17.3 mph - N/A   Scattered Clouds
3:34 PM 11.1 °F -4.5 °F 2.3 °F 68% 30.24 in - SSW 13.8 mph - N/A   Scattered Clouds
3:53 PM 12.0 °F -2.0 °F 2.1 °F 65% 30.23 in - South 11.5 mph - N/A   Scattered Clouds
4:13 PM 11.3 °F -4.9 °F 1.8 °F 66% 30.23 in - SSW 15.0 mph 19.6 mph N/A   Scattered Clouds
4:34 PM 11.3 °F -2.2 °F 1.6 °F 65% 30.22 in - SSW 10.4 mph - N/A   Scattered Clouds
4:54 PM 11.3 °F -2.9 °F 2.3 °F 67% 30.21 in - SSW 11.5 mph - N/A   Mostly Cloudy
5:14 PM 12.0 °F -2.7 °F 3.2 °F 68% 30.21 in - SSW 12.7 mph - N/A   Overcast
5:34 PM 12.2 °F -3.1 °F 3.2 °F 67% 30.20 in - SSW 13.8 mph - N/A   Overcast
5:53 PM 12.7 °F -1.1 °F 3.2 °F 66% 30.18 in - SSW 11.5 mph 19.6 mph N/A   Overcast
6:14 PM 13.1 °F -3.1 °F 3.2 °F 65% 30.18 in - South 16.1 mph 23.0 mph N/A   Overcast
6:34 PM 13.5 °F -1.5 °F 3.2 °F 64% 30.16 in - SSW 13.8 mph 24.2 mph N/A   Mostly Cloudy
6:53 PM 14.0 °F -2.0 °F 3.2 °F 62% 30.15 in - SSW 16.1 mph 23.0 mph N/A   Mostly Cloudy
7:14 PM 14.4 °F -2.5 °F 3.9 °F 63% 30.14 in - SSW 18.4 mph 25.3 mph N/A   Overcast
7:34 PM 14.5 °F -5.1 °F 4.3 °F 64% 30.13 in - SSW 26.5 mph 32.2 mph N/A   Mostly Cloudy
7:53 PM 14.5 °F -2.7 °F 4.8 °F 65% 30.11 in - SSW 19.6 mph 33.4 mph N/A   Overcast
8:14 PM 14.9 °F -2.3 °F 5.0 °F 65% 30.09 in - SSW 19.6 mph 31.1 mph N/A   Overcast
8:34 PM 14.9 °F -1.8 °F 5.5 °F 66% 30.07 in - SSW 18.4 mph 32.2 mph N/A   Overcast
8:53 PM 14.7 °F -2.5 °F 4.8 °F 65% 30.06 in - SSW 19.6 mph 29.9 mph N/A   Overcast
9:14 PM 14.4 °F -5.0 °F 5.2 °F 67% 30.04 in - South 25.3 mph 36.8 mph N/A   Overcast
9:34 PM 14.0 °F -4.3 °F 5.2 °F 68% 30.02 in - SSW 21.9 mph 32.2 mph N/A   Mostly Cloudy
9:53 PM 14.0 °F -3.4 °F 4.8 °F 67% 30.01 in - SSW 19.6 mph 34.5 mph N/A   Mostly Cloudy
10:14 PM 14.0 °F -5.5 °F 5.5 °F 69% 30.00 in - SSW 25.3 mph 38.0 mph N/A   Mostly Cloudy
10:34 PM 14.0 °F -3.4 °F 5.0 °F 67% 29.99 in - SSW 19.6 mph 32.2 mph N/A   Mostly Cloudy
10:53 PM 14.4 °F -4.2 °F 5.4 °F 67% 29.98 in - SSW 23.0 mph 40.3 mph N/A   Scattered Clouds
11:14 PM 14.4 °F -4.2 °F 5.0 °F 66% 29.95 in - South 23.0 mph 36.8 mph N/A   Scattered Clouds
11:34 PM 14.5 °F -4.7 °F 5.7 °F 68% 29.94 in - SSW 25.3 mph 36.8 mph N/A   Clear
11:53 PM 14.9 °F -3.1 °F 5.9 °F 68% 29.94 in - SSW 21.9 mph 36.8 mph N/A   Scattered Clouds